Location: Newark
(11.6000°N, 43.1667°E)
Time: 13:44:18
(UTC+00:00)

LightSail 2 - Pass Details

Date: 22 September 2019
Orbit: 707 x 722 km, 24.0° (Epoch: 18 October)

Event Time Altitude Azimuth Distance (km) Brightness Sun altitude
Exits shadow 02:10:11 11° 302° (WNW) 2,095 7.1 -12.2°
Maximum altitude 02:13:55 22° 352° (N) 1,489 6.8 -11.3°
Drops below altitude 10° 02:17:54 10° 43° (NE) 2,159 8.3 -10.3°
Sets 02:20:48 0° 58° (ENE) 3,079 9.6 -9.6°
